Flag for U.S.A. Weather past 2 weeks in Chattanooga, Tennessee, U.S.A.

Now
86 °F

Partly cloudy.


Feels Like: 93 °F
Forecast: 74 / 92 °F
Wind: No wind

Location: Lovell Field

Current Time: Jul 27, 2015 at 10:38:56 PM

Latest Report: Jul 27, 2015 at 9:53 PM


Visibility: 10 mi

Pressure: 29.94 "Hg

Humidity: 65%

Dew point: 73 °F

Location of ChattanoogaLocation

Historic Weather in Chattanooga — Graph

°F

Chattanooga temperature yesterday

Maximum temperature yesterday: 95 °F (at 3:53 PM)
Minimum temperature yesterday: 73 °F (at 5:53 AM)
Average temperature yesterday: 83 °F

Past Weeks' High & Low Weather Summary

 TemperatureHumidityPressure
High95 °F (Jul 20, 4:53 PM)94% (Jul 18, 5:53 AM)30.04 "Hg (Jul 18, 5:53 AM)
Low69 °F (Jul 16, 6:53 AM)37% (Jul 16, 5:53 PM)29.69 "Hg (Jul 14, 4:53 PM)
Average82 °F72%29.92 "Hg
* Reported Jul 12 8:53 PM — Jul 27 8:53 PM, Chattanooga, Weather by CustomWeather, © 2015

Note: Actual official high and low records may vary slightly from our data, if they occured in-between our weather recording intervals... More about our weather records

Advertising

Chattanooga weather history for previous 24 hours

 ConditionsComfort  
Time TempWeatherWind HumidityBarometerVisibility
8:53 PM
Mon, Jul 27
87 °FBroken clouds.5 mph63%29.93 "Hg10 mi
7:53 PM90 °FBroken clouds.5 mph54%29.91 "Hg10 mi
6:53 PM92 °FBroken clouds.3 mph51%29.92 "Hg10 mi
4:53 PM90 °FBroken clouds.5 mph54%29.93 "Hg10 mi
3:53 PM93 °FBroken clouds.5 mph47%29.94 "Hg10 mi
2:53 PM91 °FBroken clouds.5 mph52%29.95 "Hg10 mi
1:53 PM93 °FBroken clouds.8 mph49%29.96 "Hg10 mi
12:53 PM90 °FBroken clouds.5 mph56%29.98 "Hg10 mi
11:53 AM89 °FBroken clouds.No wind57%30.00 "Hg10 mi
10:53 AM85 °FScattered clouds.No wind70%30.00 "Hg10 mi
9:53 AM81 °FScattered clouds.No wind74%30.00 "Hg10 mi
8:53 AM80 °FScattered clouds.No wind79%30.00 "Hg10 mi
7:53 AM76 °FPartly sunny.No wind91%29.99 "Hg10 mi
6:53 AM75 °FPassing clouds.No wind90%29.97 "Hg7 mi
5:53 AM75 °FPassing clouds.No wind90%29.96 "Hg7 mi
4:53 AM75 °FClear.No wind90%29.95 "Hg9 mi
3:53 AM75 °FClear.5 mph90%29.94 "Hg10 mi
2:53 AM77 °FClear.No wind88%29.94 "Hg10 mi
1:53 AM78 °FClear.No wind84%29.95 "Hg10 mi
12:53 AM78 °FClear.No wind84%29.96 "Hg10 mi
11:53 PM
Sun, Jul 26
79 °FPassing clouds.3 mph79%29.96 "Hg10 mi
10:53 PM80 °FPassing clouds.No wind76%29.96 "Hg10 mi
Weather by CustomWeather, © 2015

See weather overviewHow to use our weather pages